Weather History for KLAM - October, 2013

Change the Weather History Date:

Tuesday, October 1, 2013

  Actual Average Record
Temperature  
Mean Temperature 63 °F -  
Max Temperature 74 °F 68 °F 84 °F (1980)
Min Temperature 52 °F 43 °F 32 °F (1971)
Degree Days  
Heating Degree Days 2    
Growing Degree Days 13 (Base 50)    
Moisture  
Dew Point 24 °F    
Average Humidity 23    
Maximum Humidity 38    
Minimum Humidity 14    
Precipitation  
Precipitation 0.00 in - - ()
Sea Level Pressure  
Sea Level Pressure 30.16 in    
Wind  
Wind Speed 3 mph (South)    
Max Wind Speed 15 mph    
Max Gust Speed 23 mph    
Visibility 10 miles    
Events      
Averages and records for this station are not official NWS values.
T = Trace of Precipitation, MM = Missing Value Source: NWS Daily Summary

Daily Weather History Graph

Daily Weather History Graph

Search for Another Location

Airport or City:

Trip Planner

Search our weather history database for the weather conditions in past years. The results will help you decide how hot, cold, wet, or windy it might be!

Date:

Astronomy

Oct. 01, 2013 Rise Set
Actual Time 7:00 AM MDT 6:48 PM MDT
Civil Twilight 6:34 AM MDT 7:13 PM MDT
Nautical Twilight 6:05 AM MDT 7:43 PM MDT
Astronomical Twilight 5:35 AM MDT 8:13 PM MDT
Moon 3:42 AM MDT (10/1) 4:49 PM MDT (10/1)
Length of Visible Light 12h 39m
Length of Day
11h 47m
Waning Crescent, 11% of the Moon is Illuminated
Oct 1
Waning Crescent
Oct 4
New
Oct 11
First Quarter
Oct 18
Full
Oct 26
Last Quarter

Hourly Weather History & Observations

Time (MDT) Temp. Dew Point Humidity Pressure Visibility Wind Dir Wind Speed Gust Speed Precip Events Conditions
12:15 AM 61.7 °F 21.7 °F 22% 30.14 in 10.0 mi Calm Calm - N/A   Clear
12:35 AM 61.3 °F 21.4 °F 22% 30.14 in 10.0 mi Calm Calm - N/A   Clear
12:55 AM 60.1 °F 21.6 °F 23% 30.13 in 10.0 mi Calm Calm - N/A   Clear
1:15 AM 60.1 °F 21.7 °F 23% 30.13 in 10.0 mi Calm Calm - N/A   Clear
1:35 AM 59.9 °F 21.2 °F 22% 30.14 in 10.0 mi Calm Calm - N/A   Clear
1:55 AM 60.1 °F 21.2 °F 22% 30.14 in 10.0 mi South 3.5 mph - N/A   Clear
2:15 AM 59.5 °F 21.7 °F 23% 30.14 in 10.0 mi ESE 4.6 mph - N/A   Clear
2:35 AM 56.7 °F 22.6 °F 27% 30.14 in 10.0 mi Calm Calm - N/A   Clear
2:55 AM 58.5 °F 21.9 °F 24% 30.14 in 10.0 mi Calm Calm - N/A   Clear
3:15 AM 57.4 °F 22.1 °F 26% 30.14 in 10.0 mi ENE 3.5 mph - N/A   Clear
3:35 AM 57.6 °F 22.1 °F 25% 30.14 in 10.0 mi Calm Calm - N/A   Clear
3:55 AM 56.8 °F 22.5 °F 26% 30.14 in 10.0 mi Calm Calm - N/A   Clear
4:15 AM 57.4 °F 22.3 °F 26% 30.14 in 10.0 mi Calm Calm - N/A   Clear
4:35 AM 55.2 °F 23.0 °F 29% 30.14 in 10.0 mi SE 4.6 mph - N/A   Clear
4:55 AM 54.3 °F 23.0 °F 30% 30.14 in 10.0 mi Calm Calm - N/A   Clear
5:15 AM 52.7 °F 23.9 °F 33% 30.14 in 10.0 mi Calm Calm - N/A   Clear
5:35 AM 53.1 °F 23.9 °F 32% 30.15 in 10.0 mi Calm Calm - N/A   Clear
5:55 AM 53.6 °F 23.5 °F 31% 30.15 in 10.0 mi Calm Calm - N/A   Clear
6:15 AM 55.4 °F 23.0 °F 29% 30.15 in 10.0 mi Calm Calm - N/A   Clear
6:35 AM 55.6 °F 22.5 °F 28% 30.16 in 10.0 mi Calm Calm - N/A   Clear
6:55 AM 55.4 °F 22.6 °F 28% 30.16 in 10.0 mi Calm Calm - N/A   Clear
7:15 AM 52.3 °F 23.7 °F 33% 30.17 in 10.0 mi Calm Calm - N/A   Clear
7:35 AM 52.5 °F 24.6 °F 34% 30.17 in 10.0 mi Calm Calm - N/A   Clear
7:55 AM 52.3 °F 25.7 °F 36% 30.17 in 10.0 mi Calm Calm - N/A   Clear
8:15 AM 54.1 °F 26.2 °F 34% 30.18 in 10.0 mi Calm Calm - N/A   Clear
8:35 AM 53.6 °F 26.8 °F 36% 30.19 in 10.0 mi NNE 3.5 mph - N/A   Clear
8:55 AM 54.3 °F 28.8 °F 38% 30.19 in 10.0 mi NNE 3.5 mph - N/A   Clear
9:15 AM 55.9 °F 28.6 °F 35% 30.19 in 10.0 mi NNE 3.5 mph - N/A   Clear
9:35 AM 57.7 °F 29.5 °F 34% 30.20 in 10.0 mi NNE 6.9 mph - N/A   Clear
9:55 AM 58.1 °F 28.6 °F 32% 30.21 in 10.0 mi NNE 5.8 mph - N/A   Clear
10:15 AM 60.1 °F 28.8 °F 30% 30.21 in 10.0 mi NNE 6.9 mph - N/A   Clear
10:35 AM 61.0 °F 28.2 °F 29% 30.21 in 10.0 mi Calm Calm - N/A   Clear
10:55 AM 62.6 °F 29.7 °F 29% 30.21 in 10.0 mi Calm Calm - N/A   Clear
11:15 AM 64.9 °F 31.8 °F 29% 30.21 in 10.0 mi NE 3.5 mph - N/A   Clear
11:35 AM 65.3 °F 31.1 °F 28% 30.20 in 10.0 mi Calm Calm - N/A   Clear
11:55 AM 66.4 °F 30.6 °F 26% 30.19 in 10.0 mi Calm Calm - N/A   Clear
12:15 PM 67.6 °F 30.6 °F 25% 30.19 in 10.0 mi Calm Calm - N/A   Clear
12:35 PM 68.5 °F 29.8 °F 24% 30.19 in 10.0 mi Calm Calm - N/A   Clear
12:55 PM 69.4 °F 30.0 °F 23% 30.18 in 10.0 mi Calm Calm - N/A   Clear
1:15 PM 70.5 °F 30.7 °F 23% 30.18 in 10.0 mi NE 3.5 mph - N/A   Clear
1:35 PM 71.6 °F 32.4 °F 24% 30.17 in 10.0 mi ESE 8.1 mph - N/A   Clear
1:55 PM 72.3 °F 30.9 °F 22% 30.16 in 10.0 mi SSE 6.9 mph - N/A   Clear
2:15 PM 72.3 °F 29.1 °F 20% 30.16 in 10.0 mi SSE 6.9 mph - N/A   Clear
2:35 PM 73.0 °F 29.5 °F 20% 30.15 in 10.0 mi SSE 11.5 mph - N/A   Clear
2:55 PM 73.9 °F 28.9 °F 19% 30.15 in 10.0 mi South 11.5 mph - N/A   Clear
3:15 PM 73.9 °F 28.8 °F 19% 30.14 in 10.0 mi SSE 15.0 mph - N/A   Clear
3:35 PM 74.1 °F 29.7 °F 19% 30.14 in 10.0 mi South 10.4 mph 16.1 mph N/A   Clear
3:55 PM 74.1 °F 28.9 °F 19% 30.13 in 10.0 mi South 13.8 mph 19.6 mph N/A   Clear
4:15 PM 74.3 °F 27.9 °F 18% 30.13 in 10.0 mi SSE 12.7 mph 17.3 mph N/A   Clear
4:35 PM 74.3 °F 27.0 °F 17% 30.13 in 10.0 mi SSE 11.5 mph 18.4 mph N/A   Clear
4:55 PM 74.3 °F 25.5 °F 16% 30.13 in 10.0 mi South 10.4 mph - N/A   Clear
5:15 PM 74.3 °F 24.6 °F 16% 30.13 in 10.0 mi SSE 8.1 mph - N/A   Clear
5:35 PM 73.9 °F 23.4 °F 15% 30.13 in 10.0 mi SSE 12.7 mph - N/A   Clear
5:55 PM 73.4 °F 21.0 °F 14% 30.13 in 10.0 mi SSE 9.2 mph - N/A   Clear
6:15 PM 72.7 °F 20.5 °F 14% 30.13 in 10.0 mi SSE 9.2 mph - N/A   Clear
6:35 PM 71.2 °F 19.2 °F 14% 30.13 in 10.0 mi South 6.9 mph - N/A   Clear
6:55 PM 70.0 °F 20.1 °F 15% 30.13 in 10.0 mi SW 9.2 mph - N/A   Clear
7:15 PM 68.9 °F 21.9 °F 17% 30.13 in 10.0 mi West 9.2 mph - N/A   Clear
7:35 PM 68.7 °F 19.6 °F 15% 30.14 in 10.0 mi West 11.5 mph - N/A   Clear
7:55 PM 67.8 °F 18.9 °F 15% 30.14 in 10.0 mi West 13.8 mph 23.0 mph N/A   Clear
8:15 PM 67.5 °F 18.0 °F 15% 30.15 in 10.0 mi West 13.8 mph - N/A   Clear
8:35 PM 66.7 °F 18.5 °F 16% 30.15 in 10.0 mi West 11.5 mph - N/A   Clear
8:55 PM 66.4 °F 17.1 °F 15% 30.16 in 10.0 mi West 13.8 mph - N/A   Clear
9:15 PM 66.2 °F 17.8 °F 16% 30.16 in 10.0 mi West 13.8 mph - N/A   Clear
9:35 PM 66.2 °F 17.4 °F 15% 30.16 in 10.0 mi West 10.4 mph - N/A   Clear
9:55 PM 64.9 °F 18.1 °F 17% 30.17 in 10.0 mi Calm Calm - N/A   Clear
10:15 PM 63.3 °F 20.5 °F 19% 30.17 in 10.0 mi Calm Calm - N/A   Clear
10:35 PM 64.9 °F 18.5 °F 17% 30.17 in 10.0 mi Calm Calm - N/A   Clear
10:55 PM 64.4 °F 18.1 °F 17% 30.17 in 10.0 mi Calm Calm - N/A   Clear
11:15 PM 64.4 °F 18.3 °F 17% 30.17 in 10.0 mi SW 3.5 mph - N/A   Clear
11:35 PM 62.8 °F 19.6 °F 19% 30.17 in 10.0 mi SW 3.5 mph - N/A   Clear
11:55 PM 64.8 °F 18.5 °F 17% 30.17 in 10.0 mi SW 4.6 mph - N/A   Clear